Location: Bocianicha
(51.5066°N, 19.2563°E)
Time: 12:59:32
(UTC+00:00)

ATLAS 2AS CENTAUR R/B - Pass Details

Date: 15 June 2025
Orbit: 1040 x 1170 km, 63.7° (Epoch: 17 July)

Event Time Altitude Azimuth Distance (km) Brightness Sun altitude
Exits shadow 01:12:27 - 255° (WSW) 3,981 5.2 -8.4°
Rises 01:12:32 0° 255° (WSW) 3,950 5.2 -8.3°
Reaches altitude 10° 01:15:25 10° 262° (W) 2,973 4.6 -8.1°
Maximum altitude 01:22:05 43° 333° (NNW) 1,483 3.7 -7.5°
Drops below altitude 10° 01:28:36 10° 44° (NE) 2,897 6.8 -6.9°
Sets 01:31:23 0° 51° (NE) 3,839 7.6 -6.6°
